|
NORAD ID: 4250 Int'l Code: 1969-101A
Perigee: 35,685.5 km
Apogee: 35,899.6 km
Inclination: 9.7 °
Period: 1,436.0 minutes
Semi major axis: 42163 km
Launch date: November 22, 1969
Source: United Kingdom (UK)
Two Line Element Set (TLE):
1 04250U 69101A 13137.52352883 -.00000119 00000-0 10000-3 0 5979
2 04250 009.6538 319.8582 0025390 178.6130 181.3413 01.00276108 86601
Source:
NASA's NSSDC Master Catalog entry for SKYNET 1
|